Brier Island, Nova Scotia

1:25 AM AST on November 19, 2017 (GMT -0400)
Brier Island

Weather History for CWVU - January, 2013

Change the Weather History Date:

Saturday, January 5, 2013

  Actual Average Record
Temperature  
Mean Temperature 32 °F -  
Max Temperature 39 °F - - ()
Min Temperature 23 °F - - ()
Degree Days  
Heating Degree Days 34    
Moisture  
Dew Point 22 °F    
Average Humidity 62    
Maximum Humidity 70    
Minimum Humidity 47    
Precipitation  
Precipitation 0.00 in - - ()
Sea Level Pressure  
Sea Level Pressure 29.94 in    
Wind  
Wind Speed 26 mph ()    
Max Wind Speed 45 mph    
Max Gust Speed 54 mph    
T = Trace of Precipitation, MM = Missing Value Source: Averaged Metar Reports

Daily Weather History Graph

Daily Weather History Graph

Search for Another Location

Airport or City:

Trip Planner

Search our weather history database for the weather conditions in past years. The results will help you decide how hot, cold, wet, or windy it might be!

Date:

Astronomy

Jan. 05, 2013 Rise Set
Actual Time 8:00 AM AST 5:01 PM AST
Civil Twilight 7:28 AM AST 5:34 PM AST
Nautical Twilight 6:51 AM AST 6:10 PM AST
Astronomical Twilight 6:16 AM AST 6:45 PM AST
Moon 12:55 AM AST (1/5) 11:55 AM AST (1/5)
Length of Visible Light 10h 06m
Length of Day
9h 00m
Last Quarter, 44% of the Moon is Illuminated
Jan 5
Last Quarter
Jan 11
New
Jan 18
First Quarter
Jan 27
Full
Feb 3
Last Quarter

Hourly Weather History & Observations

Time (AST) Temp. Windchill Dew Point Humidity Pressure Visibility Wind Dir Wind Speed Gust Speed Precip Events Conditions
12:00 AM 38.5 °F 26.0 °F 27.5 °F 65% 29.70 in - West 32.2 mph - N/A   Unknown
1:00 AM 37.8 °F 24.9 °F 25.3 °F 61% 29.69 in - West 33.4 mph 39.1 mph N/A   Unknown
2:00 AM 38 °F - 25 °F 47% 29.69 in - West 29.9 mph - -  
2:00 AM 38.1 °F 25.9 °F 25.0 °F 59% 29.69 in - West 29.9 mph 36.8 mph N/A   Unknown
3:00 AM 38.3 °F 27.1 °F 27.5 °F 65% 29.70 in - West 25.3 mph - N/A   Unknown
4:00 AM 38.3 °F 26.8 °F 26.2 °F 62% 29.69 in - West 26.5 mph 32.2 mph N/A   Unknown
6:00 AM 39.0 °F 26.4 °F 30.0 °F 70% 29.70 in - West 34.5 mph - N/A   Unknown
7:00 AM 37.4 °F 24.4 °F 28.6 °F 70% 29.73 in - West 33.4 mph 44.9 mph N/A   Unknown
8:00 AM 39 °F - 29 °F 55% 29.74 in - West 35.7 mph - -  
10:00 AM 36.7 °F 21.8 °F 23.9 °F 60% 29.83 in - West 43.7 mph 52.9 mph N/A   Unknown
11:00 AM 34.9 °F 19.1 °F 20.1 °F 55% 29.89 in - WNW 44.9 mph 54.1 mph N/A   Unknown
12:00 PM 33.4 °F 18.3 °F 23.4 °F 67% 29.92 in - WNW 36.8 mph 44.9 mph N/A   Unknown
2:00 PM 31.8 °F 16.9 °F 18.0 °F 57% 30.00 in - WNW 32.2 mph 40.3 mph N/A   Unknown
3:00 PM 29.5 °F 14.7 °F 19.4 °F 66% 30.06 in - WNW 27.6 mph - N/A   Unknown
4:00 PM 29.8 °F 15.5 °F 20.1 °F 67% 30.11 in - WNW 26.5 mph - N/A   Unknown
5:00 PM 28.0 °F 13.9 °F 18.3 °F 67% 30.14 in - WNW 23.0 mph 32.2 mph N/A   Unknown
7:00 PM 26.8 °F 12.6 °F 16.7 °F 66% 30.20 in - WNW 21.9 mph - N/A   Unknown
8:00 PM 25 °F - 14 °F 51% 30.22 in - WNW 21.9 mph - -  
8:00 PM 25.3 °F 10.7 °F 14.2 °F 63% 30.22 in - WNW 21.9 mph 27.6 mph N/A   Unknown
9:00 PM 24.6 °F 10.1 °F 13.3 °F 62% 30.23 in - NW 20.7 mph 29.9 mph N/A   Unknown
10:00 PM 24.6 °F 11.3 °F 15.6 °F 69% 30.26 in - NW 17.3 mph 23.0 mph N/A   Unknown
11:00 PM 23.9 °F 10.8 °F 15.1 °F 69% 30.28 in - WNW 16.1 mph - N/A   Unknown